Voltar ao catálogo

STARLINK-31748

AtivoComunicaçõesVLEO
NORAD 59612·PAYLOAD·🇺🇸 United States

Lançado Apr 28, 2024 de Cape Canaveral Space Force Station

Loading…

Próximas Passagens (próximas 24 horas)

TLE

AtualizadoSource: CelesTrak SupGP

Época: Sep 15, 2026, 03:02 UTC

1 59612C 24080M   26258.12687500 -.00019848  00000+0 -71885-3 0  2580
2 59612  43.0014  44.3922 0001518 267.5463 217.5397 15.27590478    12

Acompanhe STARLINK-31748 em tempo real com AllMySat

Download on the App Store